weather.gov     
National Weather Service

Terminal Aerodrome Forecast
NWS Homepage
This page is being discontinued on March 12, 2014.
The same data is available at this site. Please update your bookmarks.
Thank you, and we apologize for the inconvenience.
Please send an email to SR-SRH.Webmaster@noaa.gov with any concerns.


Current Version
Previous Version:    01  02  03  04  05  06  07  08  09  10  11  12  13  14  15  16  17  18  19  
[Printable]
933
FTUS46 KPDT 301100
TAFPSC
TAF
KPSC 301120Z 3012/3112 35003KT 6SM -RA BR OVC090
     FM301600 34004KT P6SM VCSH BKN080 OVC100
     FM301800 36005KT P6SM BKN100
     FM310300 31005KT 6SM BR OVC100
     FM310900 VRB04KT 6SM BR BKN050 OVC080=


U.S. Dept. of Commerce
NOAA National Weather Service
1325 East West Highway
Silver Spring, MD 20910
E-mail: w-nws.webmaster@noaa.gov
Page last modified: May 16, 2007
NATIONAL WEATHER SERVICE: for Safety, for Work, for Fun - FOR LIFE